Location: Mexico
(19.4000°N, 99.1500°W)
Time: 08:20:20
(UTC-06:00)

ISS - Pass Details

Date: 16 September 2019
Orbit: 411 x 421 km, 51.6° (Epoch: 18 September)

Event Time Altitude Azimuth Distance (km) Brightness Sun altitude
Exits shadow 04:32:23 - 13° (NNE) 1,666 -0.4 -26.9°
Maximum altitude 04:34:19 11° 44° (NE) 1,454 -0.3 -26.5°
Drops below altitude 10° 04:35:00 10° 56° (NE) 1,483 -0.1 -26.3°
Sets 04:38:43 0° 99° (E) 2,347 1.1 -25.5°
